Member area
Imprimable
Brussel, 08/04/2018, BEL - AG Brussels 10 Miles
List of reports > 10 miles - Result
Search: Page: [1]
209 Entries
 
Complains are not accepted anymore. Results are final.
PlaceNrNameAgeNATTimeTkmMoy.ScrCity
1.176KOKOBE ARAYA Heber43BEL57:513:36 16.696BRUXELLES
2.532FRANCOIS Christophe42BEL58:053:37 16.628MARCINELLE
3.720PIETERJAN Van Buggenhout41BEL58:233:38 16.549HEVER
4.375OLBRECHTS Peter41BEL59:243:42 16.2513VILVOORDE
5.187NOUAMANI Mohammed47BEL59:463:43 16.1514GANSHOREN
6.51LEMAIRE Ivan45BEL1:00:513:47 15.8718BRUXELLES
7.1184CNOP Christophe40BEL1:01:383:50 15.6621MECHELEN
8.266BLAVIER Eric44BEL1:03:273:57 15.2229TARCIENNE
9.1223PAINDAVEINE Davy42BEL1:05:144:04 14.8039BRUXELLES
10.281MARTIN RUBIO David43BEL1:05:184:04 14.7941WOLUWE SAINT LAMBERT
11.908CHOLAKOV Doichin43BEL1:05:234:04 14.7743BRUXELLES
12.862CARL Simon49BEL1:05:314:05 14.7444BRUXELLES
13.50RYS Klaas41BEL1:05:434:06 14.6946BRUSSEL
14.1255CIKLACEKIC Gultekin43BEL1:05:484:06 14.6748VOSSEM
15.1089VANAUTGAERDEN Maarten42BEL1:06:234:08 14.5452GALMAARDEN
16.348ROUFOSSE Bruno48BEL1:07:554:14 14.2264MOLENBEEK
17.1341FERNANDES Carlos40BEL1:08:474:17 14.0477BRUSSELS
18.283DURRANCE Neil41BEL1:09:334:20 13.8884STEENOKKERZEEL
19.170VANDENEEDE Diederik45BEL1:09:474:21 13.8487LEEFDAAL
20.763GYSSENS David44BEL1:10:234:23 13.7294VILVOORDE
21.1043SIMONART Tanguy45BEL1:10:374:24 13.6798TERVUREN
22.270WUILPART Olivier41BEL1:10:404:24 13.6699JETTE
23.520GIELEN Gert44BEL1:11:064:26 13.58106JETTE
24.576BOUCQ Frederic48BEL1:11:474:28 13.45119ROUX
25.965DELANGEN Raphael45BEL1:11:524:28 13.44121VILVOORDE
26.1217SCHMIDT Serge46BEL1:12:354:31 13.30133FALISOLLE
27.280MARTIN GARCIA David44BEL1:12:494:32 13.26137WOLUWE SAINT LAMBERT
28.299VANDEWEYERS Bram44BEL1:12:564:32 13.24140GERODE
29.300MERCKX Stefan48BEL1:12:564:32 13.24141GELRODE
30.1006PERROTIN Romain46BEL1:13:074:33 13.20145BRUXELLES
31.688DE BLOCK Kristof40BEL1:13:124:33 13.19147BRUSSEL
32.172VANHAMME André44BEL1:13:144:34 13.18148BXL
33.846KREMER Raphaël44BEL1:13:154:34 13.18149JETTE
34.1297BERNAERTS Tom42BEL1:13:264:34 13.15152LINT
35.298LINNEMANN Tobias43BEL1:14:244:38 12.98162MACHELEN
36.630GRECK Alain46BEL1:14:264:38 12.97163HOEGAARDEN
37.1007HOCINE Mehdi49BEL1:14:324:38 12.95165BRUXELLES
38.606KAMP Olivier44BEL1:14:384:39 12.94167WAVRE
39.461RYNDERS Ivan48BEL1:14:494:39 12.90171LAKEN
40.440TOUSSAINT Dider41BEL1:15:374:42 12.77187BRUXELLES
41.1196QUARESMA Nuno48BEL1:15:474:43 12.74189WOLUWE-SAINT-LAMBERT
42.1005BARA Gyula42BEL1:15:514:43 12.73192BRUSSELS
43.939SANHERMELANDO Juan42BEL1:16:164:45 12.66204BRUXELLES
44.523AFAKIR Mohamed49BEL1:16:404:46 12.59209BRUXELLES
45.316MBIAFFIE Bertrand46BEL1:16:424:46 12.59210BRUXELLES
46.820NAYT TAÏB Hamid42BEL1:17:324:50 12.45223BRUXELLES
47.700DE ROCKER Chris47BEL1:17:324:50 12.45224DENDERLEEUW
48.957SVEN Dury45BEL1:17:384:50 12.44226DIKKELVENNE
49.490VERMEIREN Dimitry40BEL1:17:394:50 12.43227WILLEBROEK
50.450SMISSAERT Hendrik48BEL1:18:054:52 12.37237MEISE
51.1304MACKENS Günther43BEL1:18:064:52 12.36238DENDERWINDEKE
52.462HUYGEN Youry45BEL1:18:394:54 12.28247MOLENBEEK
53.807MOERMAN Jonas44BEL1:18:484:54 12.25251LOUVAIN-LA-NEUVE
54.1114EMANUELE VALTER Scicolone40BEL1:19:024:55 12.22257AGRATE BRIANZA
55.81MEJIA FONSECA Lester45BEL1:19:054:55 12.21258BRUXELLES
56.368SCHELLEMANS Jan46BEL1:19:094:56 12.20262VILVOORDE
57.593SCHREURS Kurt44BEL1:19:164:56 12.18265TERVUREN
58.240MAGUIRE Peter49BEL1:19:254:57 12.16267ETTERBEEK
59.758JEANMART Nicolas44BEL1:19:284:57 12.15270SCHAERBEEK
60.1012GERVAIS Nicolas46BEL1:19:324:57 12.14271AUDERGHEM
61.196SIATKOWSKI Krzysztof47BEL1:19:424:58 12.12275CIECHANÓW
62.951DE ROP Andy42BEL1:19:594:59 12.07280BAVEGEM
63.417DE PAUW Yves47BEL1:20:024:59 12.06281MEISE
64.1178DEGBE Kossivi K.46BEL1:20:114:59 12.04288KOEKELBERG
65.1174BASTAERT Arnaud47BEL1:20:415:01 11.97302VENDEVILLE
66.104TOUSSAINT Nico42BEL1:20:485:02 11.95305BRUXELLES
67.867DE VOS Swa42BEL1:20:495:02 11.95308DILBEEK
68.5088SPENCER Christopher41BEL1:20:525:02 11.94309EVERE
69.1216CLERBOIS Rudy49BEL1:20:575:02 11.93311ANDERLUES
70.1326ASSOU-ALIPOE Emmanuel42BEL1:21:075:03 11.90318BRUXELLES
71.718FALLIER Stephane41BEL1:21:165:03 11.88323GENTINNES
72.983PEREZ Juan40BEL1:21:245:04 11.86326WEMMEL
73.267BOUTCHON Gregory43BEL1:21:255:04 11.86327VELAINE
74.160LAMOTTE Jonathan40BEL1:21:325:05 11.84331WOLUWE-SAINT-LAMBERT
75.1068GARNIER Sebastien42BEL1:21:365:05 11.83333OVERIJSE
76.373VANDENBRANDEN Dany48BEL1:21:475:05 11.81335JETTE
77.1175WATINE Alberic40BEL1:21:505:06 11.80341SAINGHIN EN WEPPES
78.150CARLIER Pierre49BEL1:21:525:06 11.79344UCCLE
79.505BUCELLA Dario42BEL1:21:535:06 11.79347BRUXELLES
80.1032LA RUSSA Gianni49BEL1:22:105:07 11.75350GOUTROUX
81.504DE PAUW Bart42BEL1:22:335:08 11.70366HERZELE
82.1179SAINT-MEDAR Gino44BEL1:22:365:08 11.69370UCCLE
83.205DECLERCQ Nick49BEL1:22:365:08 11.69371WIJGMAAL
84.628KRAUS Thomas44BEL1:23:035:10 11.63379STRASBOURG
85.1298KNUTS Sven43BEL1:23:295:12 11.56394KALMTHOUT
86.1299SUY Jeffrey44BEL1:23:305:12 11.56396WUUSTWEZEL
87.423MERTENS Olivier41BEL1:23:345:12 11.55397JETTE
88.694SCHEPERS Dirk48BEL1:23:365:12 11.55398BRASSCHAAT
89.836COLSON Eric41BEL1:23:505:13 11.52403KOBBEGEM
90.639VAN DEN SPIEGEL Filip45BEL1:23:515:13 11.51405LIEDEKERKE
91.638VAN DEN BORRE Patrick44BEL1:23:545:13 11.51406LIEDEKERKE
92.1187AEYELS Wim47BEL1:24:075:14 11.48411DENDERMONDE
93.371GARCIA Joaquin49BEL1:24:225:15 11.44416CHAUMONT GISTOUX
94.962PEYCKER Stephane44BEL1:24:255:15 11.44418FOREST
95.658GHYSELS Sven42BEL1:24:265:15 11.43420GENK
96.1306MASSAER Jo40BEL1:24:315:16 11.42421LENNIK
97.449CLARK Andrew49BEL1:24:335:16 11.42423TERVUREN
98.1126BELLAIRE Jonathan40BEL1:24:345:16 11.42424HANNUT
99.506REINI Jari49BEL1:24:515:17 11.38436BRUXELLES
100.339TILLON Filip43BEL1:24:595:17 11.36438BAMBRUGGE
101.259TONNEAUX Frederic42BEL1:25:035:18 11.35441VELAINE
102.599PROKOPIC Rastislav40BEL1:25:225:19 11.31447AUDERGHEM
103.713DECOSTER Jurgen46BEL1:25:275:19 11.30450HALLE
104.289CARBONEZ Alexis43BEL1:25:275:19 11.30451HAASRODE
105.159BARENGHI Simone44BEL1:25:325:19 11.29455WOLUWE - SAINT LAMBERT
106.463KOENIG Lars48BEL1:25:385:20 11.28459BRUSELS
107.1070GAUDAEN Koen43BEL1:25:565:21 11.23466GRIMBERGEN
108.891VUIJLSTEKE Carlo40BEL1:26:005:21 11.23467SINT-JANS-MOLENBEEK
109.1256VIZZINI Raphael44BEL1:26:025:21 11.22468COLFONTAINE
110.910DONVIL Koen46BEL1:26:035:21 11.22469OUDERGEM
111.1257VIZZINI Emmanuel43BEL1:26:055:21 11.22470LA HESTRE
112.1337MARTINS Paulo41BEL1:26:125:22 11.20472DROGENBOS
113.1096LHOSPIED Frédéric43BEL1:26:165:22 11.19476BRUXELLES
114.1173BUISSERET Laurent43BEL1:26:185:22 11.19477GAASBEEK
115.367GONTIE David43BEL1:26:205:22 11.18482VILVOORDE
116.656PINS Christophe45BEL1:26:215:22 11.18483WEMMEL
117.598* Mar Zé41BEL1:26:225:23 11.18485PARIS
118.922AERTS Eddy49BEL1:26:425:24 11.14493RETIE
119.897JUMEAU Vincent46BEL1:26:435:24 11.13495FOREST
120.511FONTEYN Bert41BEL1:26:465:24 11.13499OPWIJK
121.1169KLOPOCKI David46BEL1:26:475:24 11.13500TEMPLEMARS
122.1110FROIDCOEUR Mike43BEL1:26:515:24 11.12502KORBEEK-LO
123.1290SAMUELIAN Sahak40BEL1:27:205:26 11.06515UCCLE
124.86WELLENS Thomass42BEL1:27:275:27 11.04519WOLUWE SAINT LAMBERT
125.923VERWAEST Michel47BEL1:27:435:28 11.01531RETIE
126.1448LANGEROCK Jeroen46BEL1:27:465:28 11.00534MERELBEKE
127.429FORTIN Xavier43BEL1:28:045:29 10.96547BRUXELLES
128.84MONSONEGO Laurent49BEL1:28:385:31 10.89570ETTERBEEK
129.1082HAON Sylvain43BEL1:28:385:31 10.89571UCCLE
130.587RENDERS Gregory45BEL1:28:515:32 10.87585BRUXELLES
131.1266PAUWELS Dimitri42BEL1:28:555:32 10.86588ASSE
132.921DE WITTE Kris47BEL1:28:575:32 10.85589RETIE
133.503BANTU BIMBI BABY Jean Marc44BEL1:29:065:33 10.84593NEDER-OVER-HEEMBEEK (BRU.)
134.48JACOBS Nico43BEL1:29:265:34 10.80599BRUSSEL
135.579VINCENT Joseph45BEL1:29:295:34 10.79601BRUXELLES
136.1055LEMARCHAND Sébastien41BEL1:29:295:34 10.79602JODOIGNE
137.1172SALVE Manu46BEL1:29:345:34 10.78604CHARLEROI
138.703MENTOR Shala42BEL1:29:355:35 10.78605IXELLES
139.824BURENS Eric42BEL1:29:495:35 10.75612FLOBECQ
140.913SOETE Dimitri42BEL1:29:535:36 10.74614BRUXELLES
141.1310HIERS Olivier43BEL1:30:095:37 10.71620COTTAGE GROVE
142.453DEVOD David41BEL1:30:185:37 10.69629TUBIZE
143.1099VAN MUYLDER Jurgen48BEL1:30:215:37 10.69631SINT-PIETERS-LEEUW
144.907MARTIN Jean-Yves42BEL1:30:215:37 10.69632BEEZ
145.629VANDENHOUTE Kim Henri44BEL1:30:275:38 10.67636WEMMEL
146.108OTMAMI Aziz40BEL1:30:345:38 10.66638BRUXELLES
147.810DEVROUW Bart48BEL1:30:435:39 10.64641
148.1158VERSTRAELEN Steven42BEL1:30:585:40 10.61647STEENOKKERZEEL
149.233POELS Olivier46BEL1:31:245:41 10.56661BRUXELLES
150.232HOOREMAN Xavier44BEL1:31:245:41 10.56662BRUXELLES
151.869STRYPSTEIN Denis47BEL1:31:425:42 10.53668EVERE
152.268BEUTELS Michel46BEL1:31:565:43 10.50672SINT-MARTENS-LIERDE
153.1303DILLIES Marc49BEL1:32:095:44 10.48676ESTAIMPUIS
154.847GHEYSENS Olivier42BEL1:32:235:45 10.45688WEMMEL
155.386RAVELLO Christian40BEL1:32:275:45 10.44691VILVOORDE
156.1159BERCKMANS Gunter42BEL1:32:295:45 10.44692STEENOKKERZEEL
157.1192GEENS Danny48BEL1:32:305:45 10.44693BONHEIDEN
158.175GEERT Metsu40BEL1:32:425:46 10.42698WOMMELGEM
159.883VAN CAMP Nicodemus42BEL1:33:085:48 10.37704AARTSELAAR
160.1153BASHA Enver48BEL1:33:165:48 10.35706COURT-SAINT-ETIENNE
161.1307DE SMEDT Geert47BEL1:33:335:49 10.32709SCHEPDAAL
162.186HENNEGHIEN William46BEL1:34:325:53 10.21731BRUXELLES
163.601DE MAEYER Dirk43BEL1:34:395:53 10.20735BLAASVELD
164.794HAMZAJ Shqiprim48BEL1:34:525:54 10.18739SCHARBEEK
165.224PIAGNERELLI Gaëtan45BEL1:35:085:55 10.15755ETE
166.1185DECONINCK Fabrice48BEL1:35:385:57 10.10762IXELLES
167.974BADDAR Mohamed41BEL1:36:115:59 10.04778BRUXELLES
168.342BAZILE Djemima42BEL1:36:456:01 9.98794BRAINE L'ALLEUD
169.1085MELLAS Abdessamad49BEL1:37:116:03 9.93805BRUXELLES VILLE - LAEKEN
170.1232DAVID Alewaters44BEL1:37:256:04 9.91809MUIZEN
171.41CORMAN Jean-François42BEL1:38:016:06 9.85826BATTICE
172.121ANIAKOU Spencer44BEL1:38:056:06 9.84828BRUXELLES
173.178CAENEPEEL Hans47BEL1:38:296:08 9.80835OOSTKAMP
174.1271ADJONKOH Albert49BEL1:38:386:08 9.79841ANDERLECHT
175.525DEGRACIA Grace45BEL1:38:506:09 9.77845LONDERZEEL
176.1001THOMAS Olivier43BEL1:39:026:10 9.75847AUDERGHEM
177.575LUCIEN Monamay48BEL1:39:076:10 9.74849BEAUVECHAIN
178.920HAGELSTAM Axel42BEL1:39:166:11 9.73850BRUXELLES
179.1147AMORISON Frédérick45BEL1:39:256:11 9.71852CHIÈVRES
180.374GREGOIRE William43BEL1:40:026:14 9.65864EINDHOVEN
181.1272AGBENOU Têko49BEL1:40:076:14 9.64865BRUXELLES
182.943PALMANS Sébastien41BEL1:41:146:18 9.54877JETTE
183.149VAN GOSSUM Gregory43BEL1:41:226:18 9.52878BRUXELLES
184.664VINCENZO Sammartano43BEL1:41:586:21 9.47888ANTWERPEN
185.701ALBERT Koljgeci43BEL1:42:106:21 9.45889BRUSSELS
186.397NURRA Gianluca43BEL1:42:356:23 9.41894IXELLES
187.981DAVID Marechal44BEL1:43:046:25 9.37898JETTE
188.1278DE BAERE Jannick46BEL1:43:476:27 9.30908ARDOOIE
189.1111MOENS Stéphane46BEL1:44:536:32 9.21923BRUXELLES
190.126LENART Pieter49BEL1:45:116:33 9.18929MEISE
191.757AMAH Dolou44BEL1:46:446:38 9.05952WEMMEL
192.1218AYIVOR Yaovi48BEL1:47:056:40 9.02959BRUXELLES
193.250ZEITOUN Laurent46BEL1:47:216:41 8.99964BRUXELLES
194.535QUESTIER Erwin48BEL1:47:556:43 8.95970VILVOORDE
195.515THIJS Tomas42BEL1:48:516:46 8.87976DILBEEK
196.1109PARBEY Omensan Eric49BEL1:49:386:49 8.81978JETTE
197.947POMA ESCALIER Nestor49BEL1:49:496:50 8.79981BERCHEM
198.49LOOMANS Yves44BEL1:50:276:52 8.74984BRUSSEL
199.665DE PREST Mario45BEL1:51:456:57 8.64992TURNHOUT
200.1063CARPENTIER Jeremy44BEL1:52:487:01 8.561006WOLUWE SAINT LAMBERT
201.976WALCZAK Mariusz46BEL1:52:517:01 8.561007SAINT GILLES
202.291BOMBAERTS Dimitri45BEL1:52:517:01 8.551008LAEKEN (BRU.)
203.927ROELS Yves49BEL1:53:567:05 8.471015BRUXELLES
204.151TAKI Naoki44BEL1:54:147:06 8.451020BRUSSELS
205.372MERENS Erik45BEL1:55:307:11 8.361025BRUSSEL
206.795SAUVAL Bernard44BEL1:58:137:21 8.171047ETTERBEEK
207.633FREOUR Benoit44BEL2:02:537:39 7.861054GESVES
208.1300HULET David46BEL2:04:147:44 7.771057HULSHOUT
209.1065PAUMEN Nicolas42BEL2:13:058:17 7.251069STROMBEEK-BEVER
DNF: did not finish; DSQ: disqualified; Speed in km/h
Page: [1]